Pagosa Springs, CO

8:05 PM MDT on August 16, 2017 (GMT -0600)
Pagosa Springs

Weather History for KPSO - November, 2012

Change the Weather History Date:

Saturday, November 3, 2012

  Actual Average (KE33) Record (KE33)
Temperature  
Mean Temperature 42 °F -  
Max Temperature 59 °F 46 °F 64 °F (2001)
Min Temperature 24 °F 30 °F 17 °F (2011)
Degree Days  
Heating Degree Days 24    
Moisture  
Dew Point 8 °F    
Average Humidity 31    
Maximum Humidity 55    
Minimum Humidity 10    
Precipitation  
Precipitation 0.00 in - - ()
Sea Level Pressure  
Sea Level Pressure 30.27 in    
Wind  
Wind Speed 1 mph (SW)    
Max Wind Speed 10 mph    
Max Gust Speed 16 mph    
Visibility 10 miles    
Events      
Averages and records for this station are not official NWS values.
T = Trace of Precipitation, MM = Missing Value Source: NWS Daily Summary

Daily Weather History Graph

Daily Weather History Graph

Search for Another Location

Airport or City:

Trip Planner

Search our weather history database for the weather conditions in past years. The results will help you decide how hot, cold, wet, or windy it might be!

Date:

Astronomy

Nov. 03, 2012 Rise Set
Actual Time 7:35 AM MDT 6:07 PM MDT
Civil Twilight 7:08 AM MDT 6:34 PM MDT
Nautical Twilight 6:37 AM MDT 7:05 PM MDT
Astronomical Twilight 6:06 AM MDT 7:36 PM MDT
Moon 9:53 PM MDT (11/3) 11:39 AM MDT (11/3)
Length of Visible Light 11h 26m
Length of Day
10h 32m
Waning Gibbous, 80% of the Moon is Illuminated
Nov 3
Waning Gibbous
Nov 6
Last Quarter
Nov 13
New
Nov 20
First Quarter
Nov 28
Full

Hourly Weather History & Observations

Time (MDT) Temp. Windchill Dew Point Humidity Pressure Visibility Wind Dir Wind Speed Gust Speed Precip Events Conditions
12:15 AM 33.1 °F - 9.1 °F 37% 30.22 in 10.0 mi Calm Calm - N/A   Clear
12:35 AM 31.5 °F - 9.1 °F 39% 30.22 in 10.0 mi Calm Calm - N/A   Clear
12:55 AM 33.1 °F - 8.8 °F 36% 30.22 in 10.0 mi Calm Calm - N/A   Clear
1:15 AM 31.1 °F - 9.5 °F 41% 30.22 in 10.0 mi Calm Calm - N/A   Clear
1:35 AM 30.4 °F - 10.0 °F 43% 30.22 in 10.0 mi Calm Calm - N/A   Clear
1:55 AM 28.2 °F - 10.0 °F 47% 30.22 in 10.0 mi Calm Calm - N/A   Clear
2:15 AM 28.0 °F - 9.1 °F 45% 30.23 in 10.0 mi Calm Calm - N/A   Clear
2:35 AM 26.6 °F - 8.8 °F 47% 30.24 in 10.0 mi Calm Calm - N/A   Clear
2:55 AM 27.7 °F - 10.2 °F 48% 30.24 in 10.0 mi Calm Calm - N/A   Clear
3:15 AM 29.1 °F - 11.3 °F 47% 30.25 in 10.0 mi Calm Calm - N/A   Clear
3:35 AM 27.7 °F - 11.3 °F 50% 30.25 in 10.0 mi Calm Calm - N/A   Clear
3:55 AM 26.4 °F - 9.7 °F 49% 30.25 in 10.0 mi Calm Calm - N/A   Clear
4:15 AM 26.6 °F - 9.7 °F 49% 30.26 in 10.0 mi Calm Calm - N/A   Clear
4:35 AM 24.1 °F - 9.5 °F 54% 30.26 in 10.0 mi Calm Calm - N/A   Clear
4:55 AM 26.6 °F - 10.0 °F 50% 30.26 in 10.0 mi Calm Calm - N/A   Clear
5:15 AM 28.9 °F - 10.0 °F 45% 30.26 in 10.0 mi Calm Calm - N/A   Clear
5:35 AM 26.1 °F - 11.5 °F 54% 30.26 in 10.0 mi Calm Calm - N/A   Clear
5:55 AM 27.7 °F - 10.4 °F 48% 30.26 in 10.0 mi Calm Calm - N/A   Clear
6:15 AM 25.0 °F - 10.9 °F 55% 30.27 in 10.0 mi Calm Calm - N/A   Clear
6:35 AM 26.8 °F - 10.6 °F 51% 30.26 in 10.0 mi Calm Calm - N/A   Clear
6:55 AM 26.4 °F - 10.9 °F 52% 30.27 in 10.0 mi Calm Calm - N/A   Clear
7:15 AM 26.2 °F - 10.6 °F 52% 30.27 in 10.0 mi Calm Calm - N/A   Clear
7:35 AM 25.0 °F - 10.4 °F 54% 30.27 in 10.0 mi Calm Calm - N/A   Clear
7:55 AM 25.2 °F - 9.7 °F 52% 30.27 in 10.0 mi Calm Calm - N/A   Clear
8:15 AM 26.1 °F - 10.9 °F 53% 30.29 in 10.0 mi Calm Calm - N/A   Clear
8:35 AM 28.8 °F - 11.1 °F 48% 30.29 in 10.0 mi Calm Calm - N/A   Clear
8:55 AM 36.0 °F - 9.3 °F 33% 30.29 in 10.0 mi Calm Calm - N/A   Clear
9:15 AM 39.4 °F - 9.1 °F 29% 30.30 in 10.0 mi Calm Calm - N/A   Clear
9:35 AM 40.3 °F - 9.0 °F 28% 30.30 in 10.0 mi Calm Calm - N/A   Clear
9:55 AM 43.0 °F - 9.3 °F 25% 30.30 in 10.0 mi Calm Calm - N/A   Clear
10:15 AM 45.1 °F - 9.5 °F 23% 30.30 in 10.0 mi Calm Calm - N/A   Clear
10:35 AM 47.8 °F - 7.3 °F 19% 30.30 in 10.0 mi Calm Calm - N/A   Clear
10:55 AM 49.8 °F - 7.9 °F 18% 30.30 in 10.0 mi Calm Calm - N/A   Clear
11:15 AM 50.5 °F - 7.9 °F 18% 30.30 in 10.0 mi Calm Calm - N/A   Clear
11:35 AM 52.2 °F - 6.3 °F 16% 30.30 in 10.0 mi South 3.5 mph - N/A   Clear
11:55 AM 53.2 °F - 4.6 °F 14% 30.29 in 10.0 mi Calm Calm - N/A   Clear
12:15 PM 54.3 °F - 5.4 °F 14% 30.29 in 10.0 mi South 4.6 mph - N/A   Clear
12:35 PM 55.4 °F - 2.1 °F 12% 30.28 in 10.0 mi West 3.5 mph - N/A   Clear
12:55 PM 55.8 °F - 2.3 °F 12% 30.27 in 10.0 mi WSW 4.6 mph - N/A   Clear
1:15 PM 57.0 °F - 3.0 °F 11% 30.27 in 10.0 mi West 5.8 mph - N/A   Clear
1:35 PM 57.6 °F - 3.7 °F 12% 30.26 in 10.0 mi WSW 5.8 mph - N/A   Clear
1:55 PM 57.9 °F - 3.6 °F 11% 30.26 in 10.0 mi SW 8.1 mph 16.1 mph N/A   Clear
2:15 PM 57.9 °F - 3.0 °F 11% 30.25 in 10.0 mi SW 10.4 mph - N/A   Clear
2:35 PM 58.1 °F - 2.7 °F 11% 30.24 in 10.0 mi SSW 5.8 mph - N/A   Clear
2:55 PM 58.6 °F - 2.5 °F 10% 30.24 in 10.0 mi SSW 4.6 mph - N/A   Clear
3:15 PM 59.2 °F - 3.2 °F 11% 30.24 in 10.0 mi West 9.2 mph - N/A   Clear
3:35 PM 58.6 °F - 3.4 °F 11% 30.24 in 10.0 mi WSW 9.2 mph - N/A   Clear
3:55 PM 58.1 °F - 3.6 °F 11% 30.24 in 10.0 mi SSW 10.4 mph - N/A   Clear
4:15 PM 59.0 °F - 4.1 °F 11% 30.24 in 10.0 mi WSW 10.4 mph 16.1 mph N/A   Clear
4:35 PM 58.5 °F - 4.5 °F 12% 30.24 in 10.0 mi WSW 9.2 mph - N/A   Clear
4:55 PM 58.5 °F - 4.1 °F 11% 30.24 in 7.0 mi SW 9.2 mph - N/A   Clear
5:15 PM 57.7 °F - 3.9 °F 12% 30.24 in 10.0 mi SW 9.2 mph - N/A   Clear
5:35 PM 56.8 °F - 4.1 °F 12% 30.24 in 10.0 mi SSW 9.2 mph - N/A   Clear
5:55 PM 55.9 °F - 4.5 °F 13% 30.25 in 10.0 mi SW 3.5 mph - N/A   Clear
6:15 PM 54.0 °F - 5.2 °F 14% 30.25 in 10.0 mi SW 3.5 mph - N/A   Clear
6:35 PM 45.9 °F - 6.4 °F 20% 30.26 in 10.0 mi Calm Calm - N/A   Clear
6:55 PM 41.5 °F - 7.0 °F 24% 30.27 in 10.0 mi Calm Calm - N/A   Clear
7:15 PM 42.8 °F - 7.7 °F 24% 30.27 in 10.0 mi Calm Calm - N/A   Clear
7:35 PM 41.2 °F - 7.0 °F 24% 30.27 in 10.0 mi Calm Calm - N/A   Clear
7:55 PM 41.0 °F 39.0 °F 7.7 °F 25% 30.28 in 10.0 mi NNE 3.5 mph - N/A   Clear
8:15 PM 37.8 °F - 7.5 °F 29% 30.29 in 10.0 mi Calm Calm - N/A   Clear
8:35 PM 39.9 °F - 7.5 °F 26% 30.29 in 10.0 mi Calm Calm - N/A   Clear
8:55 PM 36.9 °F - 7.5 °F 30% 30.30 in 10.0 mi Calm Calm - N/A   Clear
9:15 PM 40.3 °F 37.1 °F 8.2 °F 27% 30.30 in 10.0 mi NE 4.6 mph - N/A   Clear
9:35 PM 36.7 °F 34.1 °F 8.4 °F 31% 30.31 in 10.0 mi NE 3.5 mph - N/A   Clear
9:55 PM 35.8 °F 30.9 °F 8.4 °F 32% 30.31 in 10.0 mi NE 5.8 mph - N/A   Clear
10:15 PM 35.4 °F - 8.6 °F 33% 30.32 in 10.0 mi Calm Calm - N/A   Clear
10:35 PM 34.3 °F - 8.6 °F 34% 30.32 in 10.0 mi Calm Calm - N/A   Clear
10:55 PM 31.8 °F - 8.8 °F 38% 30.32 in 10.0 mi Calm Calm - N/A   Clear
11:15 PM 30.9 °F - 8.6 °F 39% 30.32 in 10.0 mi Calm Calm - N/A   Clear
11:35 PM 32.0 °F - 9.0 °F 38% 30.32 in 10.0 mi Calm Calm - N/A   Clear
11:55 PM 31.6 °F 28.3 °F 8.6 °F 38% 30.32 in 10.0 mi NW 3.5 mph - N/A   Clear